When you browse on this site, cookies collect data to enhance your experience and personalize the content and advertising you see.
Visit our Privacy Policy to learn more. By continuing to use the site, you agree to this use of cookies and data.
  • In Spain
  • List of Countries
  • For 7 days
  • Water Temperature
  • Weather Map
  • Weather Widgets
  • user-avatar
    Login

    Hourly Weather Offenbach am Main

    Today, 6 December, Friday

    Time Temperature Precipitation Wind Pressure Humidity
    00:00 -2°C° 0 mm 2 mps 756 mmHg 66%
    01:00 -2°C° 0 mm 2 mps 755 mmHg 67%
    02:00 -2°C° 0 mm 2 mps 755 mmHg 66%
    03:00 -2°C° 0 mm 2 mps 754 mmHg 66%
    04:00 -2°C° 0 mm 2 mps 754 mmHg 66%
    05:00 -2°C° 0 mm 3 mps 754 mmHg 66%
    06:00 -2°C° 0 mm 3 mps 754 mmHg 66%
    07:00 -1°C° 0 mm 3 mps 754 mmHg 66%
    08:00 -1°C° 0 mm 3 mps 753 mmHg 64%
    09:00 0°C° 0 mm 3 mps 753 mmHg 62%
    10:00 0°C° 0 mm 4 mps 753 mmHg 61%
    11:00 0°C° 0 mm 4 mps 752 mmHg 59%
    12:00 +1°C° 0 mm 4 mps 752 mmHg 58%
    13:00 +3°C° 0 mm 4 mps 752 mmHg 57%
    14:00 +3°C° 0 mm 4 mps 751 mmHg 60%
    15:00 +3°C° 0 mm 4 mps 750 mmHg 63%
    16:00 +3°C° 0 mm 4 mps 750 mmHg 66%
    17:00 +3°C° 0.4 mm 4 mps 749 mmHg 71%
    18:00 +2°C° 0.4 mm 5 mps 749 mmHg 75%
    19:00 +2°C° 0.4 mm 5 mps 749 mmHg 80%
    20:00 +3°C° 1.1 mm 5 mps 748 mmHg 82%
    21:00 +3°C° 1.1 mm 5 mps 748 mmHg 84%
    22:00 +3°C° 1.1 mm 6 mps 748 mmHg 87%
    23:00 +4°C° 0.4 mm 6 mps 747 mmHg 88%

    Tomorrow, 7 December, Saturday

    Time Temperature Precipitation Wind Pressure Humidity
    00:00 +4°C° 0.4 mm 6 mps 747 mmHg 89%
    01:00 +4°C° 0.4 mm 6 mps 747 mmHg 90%
    02:00 +6°C° 0.2 mm 5 mps 747 mmHg 89%
    03:00 +6°C° 0.2 mm 5 mps 747 mmHg 87%
    04:00 +6°C° 0.2 mm 5 mps 747 mmHg 86%
    05:00 +6°C° 0 mm 5 mps 747 mmHg 85%
    06:00 +6°C° 0 mm 5 mps 748 mmHg 83%
    07:00 +6°C° 0 mm 5 mps 749 mmHg 81%
    08:00 +6°C° 0 mm 5 mps 749 mmHg 82%
    09:00 +6°C° 0 mm 5 mps 750 mmHg 82%
    10:00 +6°C° 0 mm 4 mps 750 mmHg 82%
    11:00 +7°C° 0 mm 5 mps 750 mmHg 80%
    12:00 +7°C° 0 mm 5 mps 751 mmHg 79%
    13:00 +7°C° 0 mm 5 mps 751 mmHg 77%
    14:00 +7°C° 0 mm 5 mps 751 mmHg 79%
    15:00 +7°C° 0 mm 4 mps 751 mmHg 80%
    16:00 +7°C° 0 mm 4 mps 750 mmHg 82%
    17:00 +7°C° 0 mm 4 mps 751 mmHg 81%
    18:00 +7°C° 0 mm 4 mps 751 mmHg 81%
    19:00 +6°C° 0 mm 4 mps 752 mmHg 81%
    20:00 +6°C° 0 mm 4 mps 752 mmHg 81%
    21:00 +6°C° 0 mm 4 mps 752 mmHg 82%
    22:00 +7°C° 0 mm 3 mps 752 mmHg 83%
    23:00 +7°C° 0 mm 3 mps 752 mmHg 83%

    Day after tomorrow, 8 December, Sunday

    Time Temperature Precipitation Wind Pressure Humidity
    00:00 +6°C° 0 mm 4 mps 751 mmHg 83%
    01:00 +6°C° 0 mm 4 mps 751 mmHg 83%
    02:00 +6°C° 0 mm 4 mps 751 mmHg 83%
    03:00 +5°C° 0 mm 4 mps 750 mmHg 83%
    04:00 +5°C° 0 mm 4 mps 749 mmHg 83%
    05:00 +5°C° 0 mm 4 mps 749 mmHg 82%
    06:00 +5°C° 0 mm 4 mps 748 mmHg 81%
    07:00 +5°C° 0 mm 5 mps 748 mmHg 80%
    08:00 +6°C° 0.2 mm 5 mps 747 mmHg 81%
    09:00 +5°C° 0.2 mm 6 mps 747 mmHg 82%
    10:00 +7°C° 0.2 mm 6 mps 746 mmHg 83%
    11:00 +7°C° 0.5 mm 6 mps 746 mmHg 83%
    12:00 +8°C° 0.5 mm 6 mps 745 mmHg 82%
    13:00 +8°C° 0.5 mm 7 mps 745 mmHg 81%
    14:00 +9°C° 0 mm 6 mps 744 mmHg 81%
    15:00 +9°C° 0 mm 6 mps 744 mmHg 82%
    16:00 +9°C° 0 mm 6 mps 743 mmHg 83%
    17:00 +9°C° 0.1 mm 6 mps 743 mmHg 83%
    18:00 +9°C° 0.1 mm 5 mps 743 mmHg 84%
    19:00 +9°C° 0.1 mm 5 mps 743 mmHg 85%
    20:00 +8°C° 0.1 mm 5 mps 743 mmHg 81%
    21:00 +8°C° 0.1 mm 5 mps 743 mmHg 76%
    22:00 +7°C° 0.1 mm 6 mps 743 mmHg 72%
    23:00 +7°C° 0.2 mm 6 mps 742 mmHg 73%

    9 December, Monday

    Time Temperature Precipitation Wind Pressure Humidity
    00:00 +7°C° 0.2 mm 6 mps 742 mmHg 75%
    01:00 +6°C° 0.2 mm 7 mps 742 mmHg 76%
    02:00 +7°C° 0.2 mm 6 mps 741 mmHg 75%
    03:00 +5°C° 0.2 mm 6 mps 741 mmHg 74%
    04:00 +6°C° 0.2 mm 5 mps 740 mmHg 74%
    05:00 +5°C° 0 mm 6 mps 739 mmHg 74%
    06:00 +5°C° 0 mm 7 mps 739 mmHg 75%
    07:00 +5°C° 0 mm 8 mps 738 mmHg 75%
    08:00 +5°C° 0.2 mm 8 mps 738 mmHg 77%
    09:00 +5°C° 0.2 mm 7 mps 737 mmHg 78%
    10:00 +4°C° 0.2 mm 7 mps 737 mmHg 80%
    11:00 +4°C° 0.6 mm 7 mps 737 mmHg 79%
    12:00 +5°C° 0.6 mm 6 mps 737 mmHg 78%
    13:00 +6°C° 0.6 mm 5 mps 737 mmHg 76%
    14:00 +5°C° 0.3 mm 5 mps 738 mmHg 78%
    15:00 +5°C° 0.3 mm 5 mps 738 mmHg 80%
    16:00 +5°C° 0.3 mm 5 mps 738 mmHg 82%
    17:00 +5°C° 0.3 mm 5 mps 738 mmHg 84%
    18:00 +4°C° 0.3 mm 4 mps 739 mmHg 85%
    19:00 +4°C° 0.3 mm 4 mps 739 mmHg 87%
    20:00 +4°C° 0.2 mm 4 mps 740 mmHg 87%
    21:00 +5°C° 0.2 mm 5 mps 741 mmHg 87%
    22:00 +5°C° 0.2 mm 5 mps 741 mmHg 86%
    23:00 +3°C° 0.2 mm 6 mps 742 mmHg 85%

    10 December, Tuesday

    Time Temperature Precipitation Wind Pressure Humidity
    00:00 +3°C° 0.2 mm 6 mps 743 mmHg 83%
    01:00 +2°C° 0.2 mm 7 mps 744 mmHg 81%
    02:00 +2°C° 0.5 mm 7 mps 745 mmHg 77%
    03:00 +3°C° 0.5 mm 7 mps 747 mmHg 73%
    04:00 +3°C° 0.5 mm 7 mps 748 mmHg 69%
    05:00 +2°C° 0 mm 6 mps 749 mmHg 70%
    06:00 +2°C° 0 mm 6 mps 750 mmHg 71%
    07:00 +1°C° 0 mm 5 mps 751 mmHg 72%
    08:00 +2°C° 0 mm 5 mps 753 mmHg 72%
    09:00 +3°C° 0 mm 4 mps 754 mmHg 73%
    10:00 +3°C° 0 mm 4 mps 755 mmHg 74%
    11:00 +3°C° 0 mm 4 mps 755 mmHg 71%
    12:00 +4°C° 0 mm 4 mps 755 mmHg 69%
    13:00 +4°C° 0 mm 4 mps 756 mmHg 67%
    14:00 +4°C° 0 mm 3 mps 756 mmHg 68%
    15:00 +3°C° 0 mm 3 mps 756 mmHg 70%
    16:00 +4°C° 0 mm 2 mps 756 mmHg 71%
    17:00 +3°C° 0 mm 3 mps 755 mmHg 73%
    18:00 +2°C° 0 mm 3 mps 755 mmHg 75%
    19:00 +2°C° 0 mm 3 mps 755 mmHg 77%
    20:00 +2°C° 0 mm 3 mps 754 mmHg 77%
    21:00 +1°C° 0 mm 4 mps 754 mmHg 77%
    22:00 +1°C° 0 mm 4 mps 753 mmHg 76%
    23:00 +1°C° 0.1 mm 4 mps 752 mmHg 77%

    11 December, Wednesday

    Time Temperature Precipitation Wind Pressure Humidity
    00:00 +1°C° 0.1 mm 4 mps 751 mmHg 78%
    01:00 +1°C° 0.1 mm 5 mps 750 mmHg 79%
    02:00 +1°C° 0 mm 4 mps 750 mmHg 75%
    03:00 +1°C° 0 mm 4 mps 749 mmHg 71%
    04:00 +3°C° 0 mm 4 mps 748 mmHg 67%
    05:00 +3°C° 0.4 mm 4 mps 748 mmHg 74%
    06:00 +3°C° 0.4 mm 4 mps 748 mmHg 80%
    07:00 +3°C° 0.4 mm 4 mps 747 mmHg 87%
    08:00 +3°C° 0.7 mm 4 mps 747 mmHg 88%
    09:00 +3°C° 0.7 mm 3 mps 747 mmHg 90%
    10:00 +4°C° 0.7 mm 3 mps 747 mmHg 92%
    11:00 +4°C° 0.1 mm 4 mps 747 mmHg 85%
    12:00 +5°C° 0.1 mm 4 mps 747 mmHg 78%
    13:00 +6°C° 0.1 mm 4 mps 747 mmHg 71%
    14:00 +5°C° 0 mm 4 mps 747 mmHg 71%
    15:00 +5°C° 0 mm 5 mps 748 mmHg 71%
    16:00 +5°C° 0 mm 5 mps 748 mmHg 72%
    17:00 +5°C° 0 mm 5 mps 747 mmHg 73%
    18:00 +5°C° 0 mm 5 mps 747 mmHg 73%
    19:00 +3°C° 0 mm 6 mps 747 mmHg 74%
    20:00 +4°C° 0 mm 6 mps 746 mmHg 74%
    21:00 +4°C° 0 mm 6 mps 746 mmHg 75%
    22:00 +4°C° 0 mm 7 mps 745 mmHg 76%
    23:00 +4°C° 0.1 mm 7 mps 744 mmHg 77%
    Show more